Tracking 19634 objects as of 22-May-2019
HD Live streaming from Space Station
objects crossing your sky now

SL-14 R/B

Track SL-14 R/B now!
10-day predictions


NORAD ID: 10096
Int'l Code: 1977-055B
Perigee: 579.2 km
Apogee: 639.3 km
Inclination: 75.8 °
Period: 96.7 minutes
Semi major axis: 6980 km
RCS: 3.6575 m2 (large)
Launch date: June 24, 1977
Source: Commonwealth of Independent States (former USSR) (CIS)
Launch site: PLESETSK MISSILE AND SPACE COMPLEX (PKMTR)

Note: This is a ROCKET BODY
aabbcc
Your satellite tracking list
Your tracking list is empty




NASA's NSSDC Master Catalog

Two Line Element Set (TLE):
1 10096U 77055B   19141.70637223 +.00000037 +00000-0 +61564-5 0  9993
2 10096 075.8338 189.9386 0043081 215.6513 144.1800 14.88664587266723
Source of the keplerian elements: AFSPC